Tracking 27422 objects as of 31-May-2023
HD Live streaming from Space Station
objects crossing your sky now

STARLINK-4740

Track STARLINK-4740 now!
10-day predictions
STARLINK-4740 is classified as:


NORAD ID: 53871
Int'l Code: 2022-114BF
Perigee: 546.2 km
Apogee: 547.6 km
Inclination: 53.2 °
Period: 95.4 minutes
Semi major axis: 6917 km
RCS: Unknown
Launch date: September 19, 2022
Source: United States (US)
Launch site: AIR FORCE EASTERN TEST RANGE (AFETR)
Your satellite tracking list
Your tracking list is empty




NASA's NSSDC Master Catalog

Two Line Element Set (TLE):
1 53871U 22114BF  23150.34045510 -.00000300  00000-0 -78147-6 0  9995
2 53871  53.2163 137.4582 0001049  85.8680 274.2432 15.08837142 40260
Source of the keplerian elements: AFSPC